AAL7 KSAV-KSFB

Flight info

Callsign AAL7
Flight time N/A
Altitude 26000
Route STARY LPERD TTHOR3
Aircraft A320/M-SDE3FGHIRWY/LB1

Departure

Time 2026-04-20 01:16
Airport Savannah Hilton Head International Airport (KSAV)

Arrival

Time N/A
Airport Orlando Sanford International Airport (KSFB)
Time Latitude Longitude Altitude Speed Heading
2026-04-20 01:02 32.13601 -81.20722 38 ft 0 kts 201°
2026-04-20 01:08 32.13608 -81.20719 35 ft 2 kts 201°
2026-04-20 01:08 32.13627 -81.20710 37 ft 3 kts 201°
2026-04-20 01:08 32.13646 -81.20702 35 ft 3 kts 196°
2026-04-20 01:08 32.13665 -81.20696 36 ft 3 kts 201°
2026-04-20 01:09 32.13672 -81.20700 35 ft 2 kts 268°
2026-04-20 01:09 32.13673 -81.20681 36 ft 2 kts 269°
2026-04-20 01:09 32.13673 -81.20673 36 ft 1 kts 269°
2026-04-20 01:11 32.13671 -81.20685 36 ft 5 kts 254°
2026-04-20 01:11 32.13651 -81.20676 36 ft 4 kts 92°
2026-04-20 01:11 32.13669 -81.20591 37 ft 16 kts 84°
2026-04-20 01:11 32.13670 -81.20466 45 ft 14 kts 91°
2026-04-20 01:12 32.13667 -81.20384 52 ft 7 kts 102°
2026-04-20 01:12 32.13607 -81.20334 53 ft 15 kts 175°
2026-04-20 01:12 32.13493 -81.20330 54 ft 18 kts 179°
2026-04-20 01:12 32.13354 -81.20330 54 ft 23 kts 181°
2026-04-20 01:13 32.13184 -81.20330 53 ft 26 kts 180°
2026-04-20 01:13 32.12999 -81.20331 54 ft 28 kts 180°
2026-04-20 01:13 32.12797 -81.20331 51 ft 31 kts 180°
2026-04-20 01:13 32.12583 -81.20255 48 ft 34 kts 150°
2026-04-20 01:14 32.12380 -81.20197 49 ft 31 kts 178°
2026-04-20 01:14 32.12151 -81.20195 47 ft 34 kts 180°
2026-04-20 01:14 32.11925 -81.20196 45 ft 27 kts 179°
2026-04-20 01:14 32.11747 -81.20198 41 ft 16 kts 180°
2026-04-20 01:15 32.11668 -81.20114 40 ft 19 kts 94°
2026-04-20 01:15 32.11713 -81.20007 40 ft 11 kts 354°
2026-04-20 01:15 32.11951 -81.20005 44 ft 75 kts 360°
2026-04-20 01:15 32.12732 -81.20014 54 ft 146 kts
2026-04-20 01:16 32.13867 -81.20026 410 ft 174 kts 358°
2026-04-20 01:16 32.15144 -81.20060 1072 ft 187 kts
2026-04-20 01:16 32.16331 -81.19475 2006 ft 189 kts 39°
2026-04-20 01:16 32.17038 -81.18112 2460 ft 212 kts 75°
2026-04-20 01:17 32.16819 -81.16292 2784 ft 246 kts 115°
2026-04-20 01:17 32.15533 -81.14814 3242 ft 276 kts 153°
2026-04-20 01:17 32.13631 -81.14270 4057 ft 286 kts 176°
2026-04-20 01:17 32.11632 -81.14275 5032 ft 288 kts 184°
2026-04-20 01:18 32.09632 -81.14463 6020 ft 289 kts 187°
2026-04-20 01:18 32.07625 -81.14661 6991 ft 290 kts 186°
2026-04-20 01:18 32.05606 -81.14805 7924 ft 292 kts 185°
2026-04-20 01:18 32.03568 -81.14893 8817 ft 294 kts 184°
2026-04-20 01:19 32.01513 -81.14930 9691 ft 296 kts 184°
2026-04-20 01:19 31.99419 -81.14934 10307 ft 309 kts 183°
2026-04-20 01:19 31.97192 -81.14928 10549 ft 332 kts 183°
2026-04-20 01:19 31.94815 -81.14914 10907 ft 348 kts 183°
2026-04-20 01:20 31.92373 -81.14893 11546 ft 354 kts 183°
2026-04-20 01:20 31.89888 -81.14868 12236 ft 359 kts 183°
2026-04-20 01:20 31.87375 -81.14846 12927 ft 363 kts 183°
2026-04-20 01:20 31.84834 -81.14830 13619 ft 366 kts 184°
2026-04-20 01:21 31.82275 -81.14818 14298 ft 369 kts 184°
2026-04-20 01:21 31.79695 -81.14805 14936 ft 372 kts 184°
2026-04-20 01:21 31.77096 -81.14791 15569 ft 375 kts 184°
2026-04-20 01:21 31.74474 -81.14775 16192 ft 378 kts 184°
2026-04-20 01:22 31.71827 -81.14759 16802 ft 381 kts 184°
2026-04-20 01:22 31.69165 -81.14745 17407 ft 384 kts 184°
2026-04-20 01:22 31.66487 -81.14731 18005 ft 387 kts 184°
2026-04-20 01:22 31.63785 -81.14716 18625 ft 390 kts 184°
2026-04-20 01:23 31.61061 -81.14698 19251 ft 392 kts 185°
2026-04-20 01:23 31.58322 -81.14683 19858 ft 396 kts 185°
2026-04-20 01:23 31.55561 -81.14670 20493 ft 398 kts 186°
2026-04-20 01:23 31.52788 -81.14656 21091 ft 400 kts 186°
2026-04-20 01:24 31.49995 -81.14640 21648 ft 402 kts 186°
2026-04-20 01:24 31.47216 -81.14627 22172 ft 404 kts 186°
2026-04-20 01:24 31.44391 -81.14613 22676 ft 408 kts 186°
2026-04-20 01:24 31.41542 -81.14596 23182 ft 410 kts 186°
2026-04-20 01:25 31.38671 -81.14577 23663 ft 412 kts 187°
2026-04-20 01:25 31.35790 -81.14560 24122 ft 414 kts 187°
2026-04-20 01:25 31.32902 -81.14541 24570 ft 417 kts 187°
2026-04-20 01:25 31.29992 -81.14522 24987 ft 420 kts 187°
2026-04-20 01:26 31.27065 -81.14501 25397 ft 422 kts 187°
2026-04-20 01:26 31.24125 -81.14487 25779 ft 424 kts 187°
2026-04-20 01:26 31.21168 -81.14489 26075 ft 424 kts 189°
2026-04-20 01:26 31.18264 -81.14868 26142 ft 417 kts 198°
2026-04-20 01:27 31.15426 -81.15523 26144 ft 415 kts 198°
2026-04-20 01:27 31.12580 -81.16183 26143 ft 416 kts 198°
2026-04-20 01:27 31.09746 -81.16839 26137 ft 416 kts 198°
2026-04-20 01:27 31.06907 -81.17493 26138 ft 416 kts 198°
2026-04-20 01:28 31.04062 -81.18145 26139 ft 416 kts 198°
2026-04-20 01:28 31.01253 -81.18785 26135 ft 417 kts 198°
2026-04-20 01:28 30.98402 -81.19434 26135 ft 417 kts 198°
2026-04-20 01:28 30.95547 -81.20079 26138 ft 417 kts 198°
2026-04-20 01:29 30.92702 -81.20727 26135 ft 417 kts 198°
2026-04-20 01:29 30.89849 -81.21383 26138 ft 418 kts 198°
2026-04-20 01:29 30.87922 -81.21825 26137 ft 418 kts 198°
2026-04-20 01:29 30.84139 -81.22686 26134 ft 419 kts 198°
2026-04-20 01:30 30.81280 -81.23337 26134 ft 418 kts 198°
2026-04-20 01:30 30.79347 -81.23777 26132 ft 417 kts 198°
2026-04-20 01:30 30.76494 -81.24427 26125 ft 417 kts 198°
2026-04-20 01:30 30.73645 -81.25070 26126 ft 417 kts 198°